Year,Month,Day,Hour,Minute,Value (Times are PST for windspeed in km/hr)
2021,11,14,00,00,0.10
2021,11,14,00,01,0.00
2021,11,14,00,02,0.00
2021,11,14,00,03,0.20
2021,11,14,00,04,3.90
2021,11,14,00,05,2.20
2021,11,14,00,06,0.20
2021,11,14,00,07,0.00
2021,11,14,00,08,0.00
2021,11,14,00,09,0.00
2021,11,14,00,10,0.00
2021,11,14,00,11,0.00
2021,11,14,00,12,0.00
2021,11,14,00,13,0.00
2021,11,14,00,14,0.00
2021,11,14,00,15,0.00
2021,11,14,00,16,0.00
2021,11,14,00,17,0.00
2021,11,14,00,18,0.00
2021,11,14,00,19,0.00
2021,11,14,00,20,0.00
2021,11,14,00,21,0.20
2021,11,14,00,22,1.20
2021,11,14,00,23,0.00
2021,11,14,00,24,0.00
2021,11,14,00,25,0.00
2021,11,14,00,26,0.00
2021,11,14,00,27,0.00
2021,11,14,00,28,0.00
2021,11,14,00,29,0.00
2021,11,14,00,30,0.00
2021,11,14,00,31,0.00
2021,11,14,00,32,0.00
2021,11,14,00,33,0.00
2021,11,14,00,34,0.00
2021,11,14,00,35,0.00
2021,11,14,00,36,0.00
2021,11,14,00,37,0.00
2021,11,14,00,38,4.40
2021,11,14,00,39,3.50
2021,11,14,00,40,2.10
2021,11,14,00,41,1.40
2021,11,14,00,42,2.20
2021,11,14,00,43,0.00
2021,11,14,00,44,0.00
2021,11,14,00,45,0.00
2021,11,14,00,46,0.00
2021,11,14,00,47,0.00
2021,11,14,00,48,0.00
2021,11,14,00,49,0.00
2021,11,14,00,50,0.00
2021,11,14,00,51,0.00
2021,11,14,00,52,0.00
2021,11,14,00,53,0.00
2021,11,14,00,54,0.00
2021,11,14,00,55,0.00
2021,11,14,00,56,0.00
2021,11,14,00,57,0.00
2021,11,14,00,58,0.00
2021,11,14,00,59,0.70
2021,11,14,01,00,1.90
2021,11,14,01,01,0.60
2021,11,14,01,02,3.50
2021,11,14,01,03,3.80
2021,11,14,01,04,1.10
2021,11,14,01,05,1.20
2021,11,14,01,06,2.80
2021,11,14,01,07,1.50
2021,11,14,01,08,2.50
2021,11,14,01,09,3.50
2021,11,14,01,10,6.40
2021,11,14,01,11,2.70
2021,11,14,01,12,3.30
2021,11,14,01,13,3.60
2021,11,14,01,14,4.70
2021,11,14,01,15,4.30
2021,11,14,01,16,3.90
2021,11,14,01,17,6.80
2021,11,14,01,18,4.40
2021,11,14,01,19,4.70
2021,11,14,01,20,0.30
2021,11,14,01,21,7.60
2021,11,14,01,22,7.30
2021,11,14,01,23,6.80
2021,11,14,01,24,3.40
2021,11,14,01,25,3.30
2021,11,14,01,26,2.50
2021,11,14,01,27,5.10
2021,11,14,01,28,3.90
2021,11,14,01,29,3.00
2021,11,14,01,30,0.00
2021,11,14,01,31,1.50
2021,11,14,01,32,3.30
2021,11,14,01,33,1.40
2021,11,14,01,34,3.60
2021,11,14,01,35,6.10
2021,11,14,01,36,8.90
2021,11,14,01,37,5.80
2021,11,14,01,38,7.40
2021,11,14,01,39,8.10
2021,11,14,01,40,11.40
2021,11,14,01,41,5.40
2021,11,14,01,42,2.80
2021,11,14,01,43,6.50
2021,11,14,01,44,9.40
2021,11,14,01,45,5.60
2021,11,14,01,46,9.60
2021,11,14,01,47,5.60
2021,11,14,01,48,6.60
2021,11,14,01,49,6.70
2021,11,14,01,50,6.80
2021,11,14,01,51,4.70
2021,11,14,01,52,6.30
2021,11,14,01,53,5.80
2021,11,14,01,54,6.40
2021,11,14,01,55,5.60
2021,11,14,01,56,6.60
2021,11,14,01,57,5.80
2021,11,14,01,58,11.70
2021,11,14,01,59,14.20
2021,11,14,02,00,9.40
2021,11,14,02,01,6.60
2021,11,14,02,02,9.00
2021,11,14,02,03,9.20
2021,11,14,02,04,7.10
2021,11,14,02,05,6.40
2021,11,14,02,06,5.60
2021,11,14,02,07,12.40
2021,11,14,02,08,9.30
2021,11,14,02,09,7.70
2021,11,14,02,10,4.00
2021,11,14,02,11,4.40
2021,11,14,02,12,6.20
2021,11,14,02,13,12.00
2021,11,14,02,14,9.40
2021,11,14,02,15,10.10
2021,11,14,02,16,5.80
2021,11,14,02,17,12.30
2021,11,14,02,18,5.20
2021,11,14,02,19,5.80
2021,11,14,02,20,6.90
2021,11,14,02,21,5.50
2021,11,14,02,22,10.50
2021,11,14,02,23,10.10
2021,11,14,02,24,8.20
2021,11,14,02,25,6.40
2021,11,14,02,26,6.00
2021,11,14,02,27,15.80
2021,11,14,02,28,10.10
2021,11,14,02,29,9.20
2021,11,14,02,30,9.30
2021,11,14,02,31,14.60
2021,11,14,02,32,12.90
2021,11,14,02,33,14.60
2021,11,14,02,34,14.30
2021,11,14,02,35,5.30
2021,11,14,02,36,15.00
2021,11,14,02,37,7.70
2021,11,14,02,38,9.20
2021,11,14,02,39,7.20
2021,11,14,02,40,12.50
2021,11,14,02,41,13.80
2021,11,14,02,42,15.20
2021,11,14,02,43,14.00
2021,11,14,02,44,15.90
2021,11,14,02,45,6.10
2021,11,14,02,46,14.40
2021,11,14,02,47,11.80
2021,11,14,02,48,11.10
2021,11,14,02,49,9.10
2021,11,14,02,50,13.90
2021,11,14,02,51,13.00
2021,11,14,02,52,16.20
2021,11,14,02,53,6.20
2021,11,14,02,54,12.60
2021,11,14,02,55,15.90
2021,11,14,02,56,10.60
2021,11,14,02,57,10.50
2021,11,14,02,58,12.60
2021,11,14,02,59,8.40
2021,11,14,03,00,8.60
2021,11,14,03,01,7.70
2021,11,14,03,02,11.60
2021,11,14,03,03,7.10
2021,11,14,03,04,3.20
2021,11,14,03,05,5.00
2021,11,14,03,06,7.10
2021,11,14,03,07,8.20
2021,11,14,03,08,8.30
2021,11,14,03,09,7.70
2021,11,14,03,10,10.90
2021,11,14,03,11,10.80
2021,11,14,03,12,12.90
2021,11,14,03,13,7.50
2021,11,14,03,14,10.10
2021,11,14,03,15,6.00
2021,11,14,03,16,9.30
2021,11,14,03,17,9.70
2021,11,14,03,18,11.10
2021,11,14,03,19,7.90
2021,11,14,03,20,6.00
2021,11,14,03,21,3.50
2021,11,14,03,22,15.40
2021,11,14,03,23,9.30
2021,11,14,03,24,7.90
2021,11,14,03,25,18.30
2021,11,14,03,26,10.20
2021,11,14,03,27,7.70
2021,11,14,03,28,13.50
2021,11,14,03,29,10.50
2021,11,14,03,30,6.30
2021,11,14,03,31,12.90
2021,11,14,03,32,8.90
2021,11,14,03,33,6.80
2021,11,14,03,34,15.10
2021,11,14,03,35,11.70
2021,11,14,03,36,13.00
2021,11,14,03,37,11.60
2021,11,14,03,38,14.70
2021,11,14,03,39,10.10
2021,11,14,03,40,11.80
2021,11,14,03,41,10.20
2021,11,14,03,42,9.90
2021,11,14,03,43,13.40
2021,11,14,03,44,11.50
2021,11,14,03,45,10.20
2021,11,14,03,46,13.10
2021,11,14,03,47,10.00
2021,11,14,03,48,7.00
2021,11,14,03,49,9.30
2021,11,14,03,50,9.20
2021,11,14,03,51,5.50
2021,11,14,03,52,2.40
2021,11,14,03,53,6.60
2021,11,14,03,54,6.80
2021,11,14,03,55,7.90
2021,11,14,03,56,9.30
2021,11,14,03,57,11.10
2021,11,14,03,58,14.20
2021,11,14,03,59,6.20
2021,11,14,04,00,6.10
2021,11,14,04,01,4.40
2021,11,14,04,02,6.20
2021,11,14,04,03,8.30
2021,11,14,04,04,14.30
2021,11,14,04,05,14.30
2021,11,14,04,06,14.60
2021,11,14,04,07,9.10
2021,11,14,04,08,13.50
2021,11,14,04,09,24.50
2021,11,14,04,10,17.90
2021,11,14,04,11,17.50
2021,11,14,04,12,7.60
2021,11,14,04,13,7.30
2021,11,14,04,14,12.40
2021,11,14,04,15,15.90
2021,11,14,04,16,8.40
2021,11,14,04,17,12.70
2021,11,14,04,18,10.70
2021,11,14,04,19,19.80
2021,11,14,04,20,15.80
2021,11,14,04,21,11.50
2021,11,14,04,22,12.10
2021,11,14,04,23,9.40
2021,11,14,04,24,14.20
2021,11,14,04,25,7.20
2021,11,14,04,26,11.40
2021,11,14,04,27,12.20
2021,11,14,04,28,12.40
2021,11,14,04,29,14.00
2021,11,14,04,30,15.20
2021,11,14,04,31,5.70
2021,11,14,04,32,6.20
2021,11,14,04,33,6.30
2021,11,14,04,34,8.10
2021,11,14,04,35,11.10
2021,11,14,04,36,13.10
2021,11,14,04,37,12.30
2021,11,14,04,38,9.10
2021,11,14,04,39,13.40
2021,11,14,04,40,13.60
2021,11,14,04,41,9.60
2021,11,14,04,42,7.20
2021,11,14,04,43,13.00
2021,11,14,04,44,24.60
2021,11,14,04,45,12.30
2021,11,14,04,46,7.20
2021,11,14,04,47,15.70
2021,11,14,04,48,16.70
2021,11,14,04,49,15.00
2021,11,14,04,50,16.50
2021,11,14,04,51,7.60
2021,11,14,04,52,6.10
2021,11,14,04,53,11.50
2021,11,14,04,54,9.30
2021,11,14,04,55,11.10
2021,11,14,04,56,18.90
2021,11,14,04,57,13.00
2021,11,14,04,58,15.20
2021,11,14,04,59,16.30
2021,11,14,05,00,18.30
2021,11,14,05,01,17.20
2021,11,14,05,02,10.80
2021,11,14,05,03,19.40
2021,11,14,05,04,15.00
2021,11,14,05,05,13.30
2021,11,14,05,06,15.20
2021,11,14,05,07,13.80
2021,11,14,05,08,22.10
2021,11,14,05,09,18.50
2021,11,14,05,10,17.20
2021,11,14,05,11,12.90
2021,11,14,05,12,15.00
2021,11,14,05,13,10.40
2021,11,14,05,14,14.20
2021,11,14,05,15,13.10
2021,11,14,05,16,14.80
2021,11,14,05,17,31.10
2021,11,14,05,18,26.20
2021,11,14,05,19,16.20
2021,11,14,05,20,32.70
2021,11,14,05,21,24.80
2021,11,14,05,22,27.40
2021,11,14,05,23,20.20
2021,11,14,05,24,17.20
2021,11,14,05,25,23.60
2021,11,14,05,26,12.80
2021,11,14,05,27,22.20
2021,11,14,05,28,26.70
2021,11,14,05,29,25.60
2021,11,14,05,30,20.20
2021,11,14,05,31,18.70
2021,11,14,05,32,17.10
2021,11,14,05,33,18.50
2021,11,14,05,34,16.90
2021,11,14,05,35,10.20
2021,11,14,05,36,10.50
2021,11,14,05,37,21.30
2021,11,14,05,38,19.70
2021,11,14,05,39,39.30
2021,11,14,05,40,21.70
2021,11,14,05,41,19.50
2021,11,14,05,42,28.00
2021,11,14,05,43,13.80
2021,11,14,05,44,12.30
2021,11,14,05,45,16.90
2021,11,14,05,46,23.60
2021,11,14,05,47,21.80
2021,11,14,05,48,18.70
2021,11,14,05,49,23.90
2021,11,14,05,50,19.40
2021,11,14,05,51,18.50
2021,11,14,05,52,23.00
2021,11,14,05,53,13.30
2021,11,14,05,54,17.50
2021,11,14,05,55,11.10
2021,11,14,05,56,18.40
2021,11,14,05,57,19.80
2021,11,14,05,58,13.40
2021,11,14,05,59,16.60
2021,11,14,06,00,12.90
2021,11,14,06,01,18.20
2021,11,14,06,02,16.20
2021,11,14,06,03,14.80
2021,11,14,06,04,14.60
2021,11,14,06,05,19.80
2021,11,14,06,06,20.80
2021,11,14,06,07,17.60
2021,11,14,06,08,24.40
2021,11,14,06,09,19.80
2021,11,14,06,10,18.30
2021,11,14,06,11,19.60
2021,11,14,06,12,15.90
2021,11,14,06,13,15.50
2021,11,14,06,14,17.00
2021,11,14,06,15,14.80
2021,11,14,06,16,13.50
2021,11,14,06,17,15.80
2021,11,14,06,18,20.80
2021,11,14,06,19,14.00
2021,11,14,06,20,23.70
2021,11,14,06,21,12.30
2021,11,14,06,22,16.70
2021,11,14,06,23,20.20
2021,11,14,06,24,18.20
2021,11,14,06,25,18.50
2021,11,14,06,26,18.10
2021,11,14,06,27,14.80
2021,11,14,06,28,22.00
2021,11,14,06,29,18.50
2021,11,14,06,30,16.60
2021,11,14,06,31,21.40
2021,11,14,06,32,15.90
2021,11,14,06,33,18.70
2021,11,14,06,34,21.30
2021,11,14,06,35,10.70
2021,11,14,06,36,22.40
2021,11,14,06,37,16.70
2021,11,14,06,38,21.00
2021,11,14,06,39,19.80
2021,11,14,06,40,20.40
2021,11,14,06,41,12.60
2021,11,14,06,42,17.40
2021,11,14,06,43,13.40
2021,11,14,06,44,15.70
2021,11,14,06,45,14.50
2021,11,14,06,46,12.30
2021,11,14,06,47,14.30
2021,11,14,06,48,17.00
2021,11,14,06,49,30.00
2021,11,14,06,50,16.60
2021,11,14,06,51,14.80
2021,11,14,06,52,17.60
2021,11,14,06,53,16.70
2021,11,14,06,54,11.00
2021,11,14,06,55,11.20
2021,11,14,06,56,15.80
2021,11,14,06,57,15.90
2021,11,14,06,58,17.90
2021,11,14,06,59,17.30
2021,11,14,07,00,25.10
2021,11,14,07,01,16.50
2021,11,14,07,02,18.80
2021,11,14,07,03,23.80
2021,11,14,07,04,21.60
2021,11,14,07,05,13.40
2021,11,14,07,06,21.30
2021,11,14,07,07,19.90
2021,11,14,07,08,15.20
2021,11,14,07,09,20.50
2021,11,14,07,10,16.90
2021,11,14,07,11,20.80
2021,11,14,07,12,14.30
2021,11,14,07,13,10.60
2021,11,14,07,14,7.20
2021,11,14,07,15,14.00
2021,11,14,07,16,13.20
2021,11,14,07,17,15.00
2021,11,14,07,18,24.10
2021,11,14,07,19,22.90
2021,11,14,07,20,22.00
2021,11,14,07,21,13.70
2021,11,14,07,22,14.90
2021,11,14,07,23,12.20
2021,11,14,07,24,14.10
2021,11,14,07,25,20.60
2021,11,14,07,26,15.60
2021,11,14,07,27,10.20
2021,11,14,07,28,14.40
2021,11,14,07,29,15.00
2021,11,14,07,30,29.00
2021,11,14,07,31,17.90
2021,11,14,07,32,14.60
2021,11,14,07,33,13.00
2021,11,14,07,34,16.60
2021,11,14,07,35,16.70
2021,11,14,07,36,16.10
2021,11,14,07,37,17.80
2021,11,14,07,38,22.90
2021,11,14,07,39,20.80
2021,11,14,07,40,14.90
2021,11,14,07,41,24.50
2021,11,14,07,42,24.50
2021,11,14,07,43,15.40
2021,11,14,07,44,13.20
2021,11,14,07,45,13.30
2021,11,14,07,46,21.20
2021,11,14,07,47,16.90
2021,11,14,07,48,18.30
2021,11,14,07,49,15.90
2021,11,14,07,50,11.70
2021,11,14,07,51,14.60
2021,11,14,07,52,16.90
2021,11,14,07,53,9.20
2021,11,14,07,54,20.20
2021,11,14,07,55,14.10
2021,11,14,07,56,16.70
2021,11,14,07,57,15.10
2021,11,14,07,58,11.50
2021,11,14,07,59,18.20
2021,11,14,08,00,7.90
2021,11,14,08,01,17.00
2021,11,14,08,02,11.30
2021,11,14,08,03,14.90
2021,11,14,08,04,18.50
2021,11,14,08,05,25.20
2021,11,14,08,06,15.80
2021,11,14,08,07,12.30
2021,11,14,08,08,11.80
2021,11,14,08,09,17.80
2021,11,14,08,10,12.70
2021,11,14,08,11,13.40
2021,11,14,08,12,11.70
2021,11,14,08,13,13.40
2021,11,14,08,14,20.40
2021,11,14,08,15,12.20
2021,11,14,08,16,16.20
2021,11,14,08,17,12.40
2021,11,14,08,18,13.00
2021,11,14,08,19,15.60
2021,11,14,08,20,17.00
2021,11,14,08,21,9.50
2021,11,14,08,22,20.50
2021,11,14,08,23,20.10
2021,11,14,08,24,10.40
2021,11,14,08,25,13.40
2021,11,14,08,26,17.50
2021,11,14,08,27,13.00
2021,11,14,08,28,9.50
2021,11,14,08,29,11.30
2021,11,14,08,30,17.10
2021,11,14,08,31,20.80
2021,11,14,08,32,11.40
2021,11,14,08,33,10.70
2021,11,14,08,34,14.90
2021,11,14,08,35,14.00
2021,11,14,08,36,19.30
2021,11,14,08,37,15.40
2021,11,14,08,38,17.80
2021,11,14,08,39,22.00
2021,11,14,08,40,18.50
2021,11,14,08,41,22.50
2021,11,14,08,42,18.20
2021,11,14,08,43,19.00
2021,11,14,08,44,13.50
2021,11,14,08,45,8.50
2021,11,14,08,46,11.10
2021,11,14,08,47,14.40
2021,11,14,08,48,19.60
2021,11,14,08,49,16.90
2021,11,14,08,50,15.90
2021,11,14,08,51,16.50
2021,11,14,08,52,13.40
2021,11,14,08,53,22.90
2021,11,14,08,54,18.20
2021,11,14,08,55,9.30
2021,11,14,08,56,7.20
2021,11,14,08,57,12.40
2021,11,14,08,58,12.00
2021,11,14,08,59,9.30
2021,11,14,09,00,7.80
2021,11,14,09,01,15.20
2021,11,14,09,02,7.50
2021,11,14,09,03,5.60
2021,11,14,09,04,12.90
2021,11,14,09,05,10.50
2021,11,14,09,06,10.20
2021,11,14,09,07,14.70
2021,11,14,09,08,16.50
2021,11,14,09,09,12.50
2021,11,14,09,10,27.30
2021,11,14,09,11,17.50
2021,11,14,09,12,13.10
2021,11,14,09,13,14.00
2021,11,14,09,14,24.90
2021,11,14,09,15,16.80
2021,11,14,09,16,15.10
2021,11,14,09,17,8.00
2021,11,14,09,18,12.40
2021,11,14,09,19,15.40
2021,11,14,09,20,13.00
2021,11,14,09,21,12.50
2021,11,14,09,22,20.40
2021,11,14,09,23,17.60
2021,11,14,09,24,10.30
2021,11,14,09,25,21.60
2021,11,14,09,26,13.00
2021,11,14,09,27,16.60
2021,11,14,09,28,12.00
2021,11,14,09,29,6.20
2021,11,14,09,30,5.30
2021,11,14,09,31,6.10
2021,11,14,09,32,7.80
2021,11,14,09,33,11.00
2021,11,14,09,34,17.00
2021,11,14,09,35,4.60
2021,11,14,09,36,7.30
2021,11,14,09,37,11.30
2021,11,14,09,38,13.90
2021,11,14,09,39,10.30
2021,11,14,09,40,16.30
2021,11,14,09,41,11.00
2021,11,14,09,42,10.10
2021,11,14,09,43,17.20
2021,11,14,09,44,16.90
2021,11,14,09,45,8.80
2021,11,14,09,46,8.80
2021,11,14,09,47,10.20
2021,11,14,09,48,8.80
2021,11,14,09,49,8.00
2021,11,14,09,50,9.30
2021,11,14,09,51,12.00
2021,11,14,09,52,8.50
2021,11,14,09,53,12.50
2021,11,14,09,54,12.60
2021,11,14,09,55,5.70
2021,11,14,09,56,7.70
2021,11,14,09,57,7.80
2021,11,14,09,58,13.20
2021,11,14,09,59,8.00
2021,11,14,10,00,14.40
2021,11,14,10,01,5.30
2021,11,14,10,02,12.30
2021,11,14,10,03,13.20
2021,11,14,10,04,8.00
2021,11,14,10,05,11.90
2021,11,14,10,06,13.00
2021,11,14,10,07,5.30
2021,11,14,10,08,13.40
2021,11,14,10,09,11.20
2021,11,14,10,10,10.60
2021,11,14,10,11,17.40
2021,11,14,10,12,6.10
2021,11,14,10,13,5.50
2021,11,14,10,14,11.40
2021,11,14,10,15,13.70
2021,11,14,10,16,14.60
2021,11,14,10,17,14.20
2021,11,14,10,18,15.20
2021,11,14,10,19,10.90
2021,11,14,10,20,8.70
2021,11,14,10,21,16.20
2021,11,14,10,22,9.00
2021,11,14,10,23,6.30
2021,11,14,10,24,8.70
2021,11,14,10,25,6.10
2021,11,14,10,26,22.00
2021,11,14,10,27,13.10
2021,11,14,10,28,6.80
2021,11,14,10,29,6.80
2021,11,14,10,30,16.60
2021,11,14,10,31,10.60
2021,11,14,10,32,15.00
2021,11,14,10,33,5.80
2021,11,14,10,34,10.30
2021,11,14,10,35,18.60
2021,11,14,10,36,10.90
2021,11,14,10,37,13.40
2021,11,14,10,38,6.80
2021,11,14,10,39,4.20
2021,11,14,10,40,0.30
2021,11,14,10,41,8.00
2021,11,14,10,42,12.30
2021,11,14,10,43,10.90
2021,11,14,10,44,16.20
2021,11,14,10,45,8.80
2021,11,14,10,46,3.00
2021,11,14,10,47,6.70
2021,11,14,10,48,7.70
2021,11,14,10,49,5.30
2021,11,14,10,50,14.60
2021,11,14,10,51,8.00
2021,11,14,10,52,5.10
2021,11,14,10,53,2.90
2021,11,14,10,54,1.10
2021,11,14,10,55,4.10
2021,11,14,10,56,2.90
2021,11,14,10,57,8.00
2021,11,14,10,58,8.30
2021,11,14,10,59,2.30
2021,11,14,11,00,1.90
2021,11,14,11,01,4.80
2021,11,14,11,02,13.20
2021,11,14,11,03,4.00
2021,11,14,11,04,6.00
2021,11,14,11,05,11.80
2021,11,14,11,06,8.90
2021,11,14,11,07,1.70
2021,11,14,11,08,2.00
2021,11,14,11,09,5.30
2021,11,14,11,10,5.40
2021,11,14,11,11,5.60
2021,11,14,11,12,9.20
2021,11,14,11,13,9.90
2021,11,14,11,14,6.10
2021,11,14,11,15,3.10
2021,11,14,11,16,3.90
2021,11,14,11,17,3.10
2021,11,14,11,18,5.50
2021,11,14,11,19,4.20
2021,11,14,11,20,3.50
2021,11,14,11,21,8.60
2021,11,14,11,22,5.20
2021,11,14,11,23,7.20
2021,11,14,11,24,1.90
2021,11,14,11,25,6.10
2021,11,14,11,26,2.80
2021,11,14,11,27,2.80
2021,11,14,11,28,4.30
2021,11,14,11,29,3.90
2021,11,14,11,30,3.80
2021,11,14,11,31,5.20
2021,11,14,11,32,1.00
2021,11,14,11,33,3.10
2021,11,14,11,34,3.40
2021,11,14,11,35,8.20
2021,11,14,11,36,5.20
2021,11,14,11,37,7.70
2021,11,14,11,38,6.90
2021,11,14,11,39,6.20
2021,11,14,11,40,6.00
2021,11,14,11,41,6.00
2021,11,14,11,42,9.00
2021,11,14,11,43,9.00
2021,11,14,11,44,3.90
2021,11,14,11,45,2.80
2021,11,14,11,46,5.60
2021,11,14,11,47,8.50
2021,11,14,11,48,3.30
2021,11,14,11,49,8.00
2021,11,14,11,50,4.50
2021,11,14,11,51,4.50
2021,11,14,11,52,1.20
2021,11,14,11,53,0.60
2021,11,14,11,54,8.60
2021,11,14,11,55,12.10
2021,11,14,11,56,9.70
2021,11,14,11,57,8.60
2021,11,14,11,58,6.50
2021,11,14,11,59,5.10
2021,11,14,12,00,10.30
2021,11,14,12,01,7.40
2021,11,14,12,02,8.00
2021,11,14,12,03,7.30
2021,11,14,12,04,5.40
2021,11,14,12,05,6.60
2021,11,14,12,06,11.10
2021,11,14,12,07,10.80
2021,11,14,12,08,15.70
2021,11,14,12,09,9.40
2021,11,14,12,10,7.50
2021,11,14,12,11,7.30
2021,11,14,12,12,9.70
2021,11,14,12,13,8.80
2021,11,14,12,14,13.60
2021,11,14,12,15,9.80
2021,11,14,12,16,5.40
2021,11,14,12,17,5.60
2021,11,14,12,18,6.40
2021,11,14,12,19,7.10
2021,11,14,12,20,5.70
2021,11,14,12,21,2.00
2021,11,14,12,22,4.60
2021,11,14,12,23,6.80
2021,11,14,12,24,6.40
2021,11,14,12,25,1.60
2021,11,14,12,26,4.70
2021,11,14,12,27,5.90
2021,11,14,12,28,2.30
2021,11,14,12,29,6.70
2021,11,14,12,30,6.80
2021,11,14,12,31,11.10
2021,11,14,12,32,9.50
2021,11,14,12,33,7.40
2021,11,14,12,34,6.70
2021,11,14,12,35,10.60
2021,11,14,12,36,17.10
2021,11,14,12,37,10.40
2021,11,14,12,38,16.30
2021,11,14,12,39,10.80
2021,11,14,12,40,4.70
2021,11,14,12,41,9.60
2021,11,14,12,42,10.90
2021,11,14,12,43,8.80
2021,11,14,12,44,9.30
2021,11,14,12,45,13.50
2021,11,14,12,46,12.70
2021,11,14,12,47,15.50
2021,11,14,12,48,13.00
2021,11,14,12,49,9.70
2021,11,14,12,50,5.90
2021,11,14,12,51,11.10
2021,11,14,12,52,6.90
2021,11,14,12,53,4.70
2021,11,14,12,54,12.40
2021,11,14,12,55,13.10
2021,11,14,12,56,6.90
2021,11,14,12,57,7.20
2021,11,14,12,58,10.10
2021,11,14,12,59,5.20
2021,11,14,13,00,5.90
2021,11,14,13,01,13.90
2021,11,14,13,02,15.50
2021,11,14,13,03,11.80
2021,11,14,13,04,11.30
2021,11,14,13,05,8.40
2021,11,14,13,06,6.30
2021,11,14,13,07,7.00
2021,11,14,13,08,15.00
2021,11,14,13,09,16.70
2021,11,14,13,10,14.10
2021,11,14,13,11,11.70
2021,11,14,13,12,14.60
2021,11,14,13,13,12.90
2021,11,14,13,14,13.10
2021,11,14,13,15,10.20
2021,11,14,13,16,11.30
2021,11,14,13,17,11.80
2021,11,14,13,18,7.60
2021,11,14,13,19,7.50
2021,11,14,13,20,9.70
2021,11,14,13,21,8.60
2021,11,14,13,22,12.60
2021,11,14,13,23,8.10
2021,11,14,13,24,5.80
2021,11,14,13,25,10.90
2021,11,14,13,26,9.40
2021,11,14,13,27,21.00
2021,11,14,13,28,22.40
2021,11,14,13,29,12.70
2021,11,14,13,30,18.20
2021,11,14,13,31,10.40
2021,11,14,13,32,4.90
2021,11,14,13,33,14.90
2021,11,14,13,34,16.60
2021,11,14,13,35,20.40
2021,11,14,13,36,11.70
2021,11,14,13,37,4.40
2021,11,14,13,38,6.90
2021,11,14,13,39,8.10
2021,11,14,13,40,6.40
2021,11,14,13,41,7.00
2021,11,14,13,42,11.30
2021,11,14,13,43,11.00
2021,11,14,13,44,11.00
2021,11,14,13,45,12.10
2021,11,14,13,46,19.50
2021,11,14,13,47,13.30
2021,11,14,13,48,8.40
2021,11,14,13,49,10.30
2021,11,14,13,50,8.90
2021,11,14,13,51,6.30
2021,11,14,13,52,6.80
2021,11,14,13,53,8.70
2021,11,14,13,54,5.90
2021,11,14,13,55,3.90
2021,11,14,13,56,7.20
2021,11,14,13,57,10.10
2021,11,14,13,58,7.80
2021,11,14,13,59,5.80
2021,11,14,14,00,4.00
2021,11,14,14,01,6.30
2021,11,14,14,02,9.90
2021,11,14,14,03,13.50
2021,11,14,14,04,4.70
2021,11,14,14,05,3.10
2021,11,14,14,06,3.80
2021,11,14,14,07,11.20
2021,11,14,14,08,13.50
2021,11,14,14,09,9.90
2021,11,14,14,10,11.00
2021,11,14,14,11,9.70
2021,11,14,14,12,7.60
2021,11,14,14,13,7.70
2021,11,14,14,14,11.30
2021,11,14,14,15,2.80
2021,11,14,14,16,5.30
2021,11,14,14,17,3.10
2021,11,14,14,18,4.20
2021,11,14,14,19,9.00
2021,11,14,14,20,5.50
2021,11,14,14,21,5.00
2021,11,14,14,22,3.80
2021,11,14,14,23,6.60
2021,11,14,14,24,3.90
2021,11,14,14,25,2.30
2021,11,14,14,26,3.90
2021,11,14,14,27,4.60
2021,11,14,14,28,4.90
2021,11,14,14,29,1.90
2021,11,14,14,30,2.10
2021,11,14,14,31,0.80
2021,11,14,14,32,0.20
2021,11,14,14,33,3.00
2021,11,14,14,34,6.70
2021,11,14,14,35,8.60
2021,11,14,14,36,4.30
2021,11,14,14,37,0.60
2021,11,14,14,38,0.00
2021,11,14,14,39,0.00
2021,11,14,14,40,0.00
2021,11,14,14,41,1.00
2021,11,14,14,42,4.90
2021,11,14,14,43,3.80
2021,11,14,14,44,3.10
2021,11,14,14,45,0.30
2021,11,14,14,46,0.00
2021,11,14,14,47,0.00
2021,11,14,14,48,0.00
2021,11,14,14,49,2.20
2021,11,14,14,50,1.90
2021,11,14,14,51,0.00
2021,11,14,14,52,0.80
2021,11,14,14,53,1.70
2021,11,14,14,54,4.30
2021,11,14,14,55,0.00
2021,11,14,14,56,2.50
2021,11,14,14,57,3.70
2021,11,14,14,58,6.80
2021,11,14,14,59,1.80
2021,11,14,15,00,2.80
2021,11,14,15,01,1.50
2021,11,14,15,02,0.00
2021,11,14,15,03,0.00
2021,11,14,15,04,2.20
2021,11,14,15,05,3.60
2021,11,14,15,06,3.30
2021,11,14,15,07,7.30
2021,11,14,15,08,7.00
2021,11,14,15,09,3.90
2021,11,14,15,10,0.20
2021,11,14,15,11,0.00
2021,11,14,15,12,0.00
2021,11,14,15,13,0.00
2021,11,14,15,14,0.00
2021,11,14,15,15,4.30
2021,11,14,15,16,3.80
2021,11,14,15,17,2.80
2021,11,14,15,18,1.00
2021,11,14,15,19,0.00
2021,11,14,15,20,0.00
2021,11,14,15,21,0.00
2021,11,14,15,22,0.00
2021,11,14,15,23,0.00
2021,11,14,15,24,0.00
2021,11,14,15,25,0.00
2021,11,14,15,26,0.00
2021,11,14,15,27,0.00
2021,11,14,15,28,4.80
2021,11,14,15,29,5.60
2021,11,14,15,30,9.00
2021,11,14,15,31,5.40
2021,11,14,15,32,0.40
2021,11,14,15,33,0.40
2021,11,14,15,34,1.10
2021,11,14,15,35,0.00
2021,11,14,15,36,0.00
2021,11,14,15,37,1.20
2021,11,14,15,38,6.60
2021,11,14,15,39,3.70
2021,11,14,15,40,0.00
2021,11,14,15,41,4.00
2021,11,14,15,42,0.00
2021,11,14,15,43,0.00
2021,11,14,15,44,0.00
2021,11,14,15,45,4.10
2021,11,14,15,46,1.10
2021,11,14,15,47,0.00
2021,11,14,15,48,4.80
2021,11,14,15,49,2.80
2021,11,14,15,50,7.90
2021,11,14,15,51,5.60
2021,11,14,15,52,6.80
2021,11,14,15,53,5.90
2021,11,14,15,54,4.40
2021,11,14,15,55,1.70
2021,11,14,15,56,0.70
2021,11,14,15,57,0.00
2021,11,14,15,58,0.00
2021,11,14,15,59,0.00
2021,11,14,16,00,0.00
2021,11,14,16,01,0.50
2021,11,14,16,02,4.40
2021,11,14,16,03,2.00
2021,11,14,16,04,1.70
2021,11,14,16,05,4.00
2021,11,14,16,06,4.60
2021,11,14,16,07,0.70
2021,11,14,16,08,0.00
2021,11,14,16,09,0.00
2021,11,14,16,10,2.40
2021,11,14,16,11,6.40
2021,11,14,16,12,4.90
2021,11,14,16,13,3.50
2021,11,14,16,14,0.20
2021,11,14,16,15,0.00
2021,11,14,16,16,0.00
2021,11,14,16,17,0.30
2021,11,14,16,18,2.70
2021,11,14,16,19,3.50
2021,11,14,16,20,2.60
2021,11,14,16,21,1.60
2021,11,14,16,22,0.50
2021,11,14,16,23,0.00
2021,11,14,16,24,1.80
2021,11,14,16,25,3.00
2021,11,14,16,26,0.00
2021,11,14,16,27,0.00
2021,11,14,16,28,0.00
2021,11,14,16,29,0.00
2021,11,14,16,30,3.20
2021,11,14,16,31,4.20
2021,11,14,16,32,2.90
2021,11,14,16,33,3.90
2021,11,14,16,34,4.70
2021,11,14,16,35,1.20
2021,11,14,16,36,1.60
2021,11,14,16,37,0.20
2021,11,14,16,38,0.00
2021,11,14,16,39,0.00
2021,11,14,16,40,0.00
2021,11,14,16,41,0.00
2021,11,14,16,42,0.00
2021,11,14,16,43,0.00
2021,11,14,16,44,2.40
2021,11,14,16,45,2.40
2021,11,14,16,46,1.70
2021,11,14,16,47,2.40
2021,11,14,16,48,3.30
2021,11,14,16,49,4.20
2021,11,14,16,50,5.60
2021,11,14,16,51,3.00
2021,11,14,16,52,3.60
2021,11,14,16,53,0.20
2021,11,14,16,54,1.30
2021,11,14,16,55,4.80
2021,11,14,16,56,1.20
2021,11,14,16,57,4.30
2021,11,14,16,58,2.60
2021,11,14,16,59,1.60
2021,11,14,17,00,2.70
2021,11,14,17,01,3.00
2021,11,14,17,02,4.40
2021,11,14,17,03,2.20
2021,11,14,17,04,0.60
2021,11,14,17,05,0.60
2021,11,14,17,06,0.00
2021,11,14,17,07,0.00
2021,11,14,17,08,0.00
2021,11,14,17,09,0.00
2021,11,14,17,10,0.00
2021,11,14,17,11,0.00
2021,11,14,17,12,0.00
2021,11,14,17,13,0.00
2021,11,14,17,14,1.10
2021,11,14,17,15,3.20
2021,11,14,17,16,2.30
2021,11,14,17,17,1.40
2021,11,14,17,18,2.60
2021,11,14,17,19,1.90
2021,11,14,17,20,2.30
2021,11,14,17,21,0.70
2021,11,14,17,22,0.00
2021,11,14,17,23,0.00
2021,11,14,17,24,0.00
2021,11,14,17,25,1.00
2021,11,14,17,26,1.70
2021,11,14,17,27,0.10
2021,11,14,17,28,1.00
2021,11,14,17,29,0.10
2021,11,14,17,30,0.00
2021,11,14,17,31,0.00
2021,11,14,17,32,1.50
2021,11,14,17,33,0.00
2021,11,14,17,34,0.00
2021,11,14,17,35,0.00
2021,11,14,17,36,0.00
2021,11,14,17,37,0.90
2021,11,14,17,38,3.60
2021,11,14,17,39,0.20
2021,11,14,17,40,0.00
2021,11,14,17,41,0.00
2021,11,14,17,42,0.00
2021,11,14,17,43,0.00
2021,11,14,17,44,0.00
2021,11,14,17,45,0.00